Location: Ipswich
(52.0579°N, 1.1528°E)
Time: 09:25:28
(UTC+01:00)

ISS - Pass Details

Date: 03 May 2026
Orbit: 414 x 424 km, 51.6° (Epoch: 8 May)

Event Time Altitude Azimuth Distance (km) Brightness Sun altitude
Exits shadow 03:50:02 - 275° (W) 1,543 -1.3 -12.1°
Reaches altitude 10° 03:50:08 10° 275° (W) 1,499 -1.3 -12.1°
Maximum altitude 03:53:29 76° 191° (S) 437 -3.8 -11.8°
Drops below altitude 10° 03:56:52 10° 105° (ESE) 1,502 -0.5 -11.4°
Sets 03:58:58 0° 104° (ESE) 2,368 0.5 -11.2°
